DW2431 Weather Reports


Display with metric or nautical units.
time (UTC)temp
F
wind
direction
speed
MPH
gust
MPH
rain 1hr
in
rain 24hr
in
rain mn
in
humidity
%
barometer
mb
20191114183053 27 115 8.0 12.0 0.00 0.00 0.00 75 1025.0
20191114181545 26 142 5.0 8.0 0.00 0.00 0.00 76 1025.0
20191114180107 26 147 4.0 7.0 0.00 0.00 0.00 78 1025.5
20191114174626 25 143 4.0 6.0 0.00 0.00 0.00 78 1025.5
20191114173056 25 159 4.0 9.0 0.00 0.00 0.00 78 1025.3
20191114171628 25 153 5.0 8.0 0.00 0.00 0.00 77 1025.4
20191114170108 26 136 8.0 11.0 0.00 0.00 0.00 77 1025.5
20191114164538 26 115 9.0 12.0 0.00 0.00 0.00 78 1025.4
20191114163107 27 136 8.0 11.0 0.00 0.00 0.00 78 1025.7
20191114161612 28 115 8.0 11.0 0.00 0.00 0.00 75 1025.8
20191114160105 30 113 7.0 10.0 0.00 0.00 0.00 73 1026.2
20191114154549 30 146 2.0 4.0 0.00 0.00 0.00 74 1026.4
20191114153127 30 160 2.0 6.0 0.00 0.00 0.00 73 1026.6
20191114151624 31 115 6.0 9.0 0.00 0.00 0.00 71 1026.4
20191114150045 32 148 5.0 8.0 0.00 0.00 0.00 72 1026.7
20191114144601 34 148 3.0 6.0 0.00 0.00 0.00 74 1026.7
20191114143132 34 148 2.0 5.0 0.00 0.00 0.00 75 1026.6
20191114141549 34 148 1.0 3.0 0.00 0.00 0.00 77 1026.5
20191114140024 33 148 2.0 3.0 0.00 0.00 0.00 78 1026.5
20191114134554 33 148 2.0 3.0 0.00 0.00 0.00 79 1026.7
20191114133038 32 148 2.0 4.0 0.00 0.00 0.00 79 1026.3
20191114131546 32 143 1.0 3.0 0.00 0.00 0.00 80 1026.4
20191114130028 31 143 2.0 5.0 0.00 0.00 0.00 82 1026.4
20191114124507 29 151 2.0 5.0 0.00 0.00 0.00 84 1026.4
20191114123032 27 159 4.0 5.0 0.00 0.00 0.00 84 1026.4
20191114121503 26 159 3.0 6.0 0.00 0.00 0.00 82 1026.3
20191114120300 27 159 4.0 6.0 0.00 0.00 0.00 83 1026.1
20191114114647 27 157 2.0 5.0 0.00 0.00 0.00 84 1026.2
20191114113414 26 157 3.0 5.0 0.00 0.00 0.00 84 1026.2
20191114111629 25 150 2.0 6.0 0.00 0.00 0.00 85 1026.0
20191114110122 24 144 3.0 5.0 0.00 0.00 0.00 85 1026.1
20191114104720 24 153 4.0 9.0 0.00 0.00 0.00 86 1026.1
20191114103108 23 142 4.0 7.0 0.00 0.00 0.00 86 1026.2
20191114101721 23 154 3.0 5.0 0.00 0.00 0.00 84 1026.0
20191114100141 25 154 2.0 3.0 0.00 0.00 0.00 85 1026.1
20191114094700 26 154 1.0 3.0 0.00 0.00 0.00 88 1026.1
20191114093106 25 154 2.0 5.0 0.00 0.00 0.00 89 1026.0
20191114091702 24 154 2.0 6.0 0.00 0.00 0.00 89 1025.7
20191114090134 23 149 3.0 6.0 0.00 0.00 0.00 88 1025.4
20191114084611 24 142 3.0 5.0 0.00 0.00 0.00 89 1024.9
20191114083059 23 142 4.0 5.0 0.00 0.00 0.00 89 1024.8
20191114081549 23 142 3.0 5.0 0.00 0.00 0.00 89 1024.5
20191114080053 23 152 4.0 6.0 0.00 0.00 0.00 88 1024.4
20191114074612 23 157 5.0 6.0 0.00 0.00 0.00 88 1024.5
20191114073056 25 157 3.0 5.0 0.00 0.00 0.00 88 1024.4
20191114071545 25 145 3.0 4.0 0.00 0.00 0.00 89 1024.3
20191114070049 25 144 2.0 3.0 0.00 0.00 0.00 89 1024.3
20191114064547 25 144 3.0 4.0 0.00 0.00 0.00 89 1024.1
20191114063033 25 144 2.0 5.0 0.00 0.00 0.00 89 1024.0
20191114061547 25 144 2.0 4.0 0.00 0.00 0.00 88 1024.1
20191114060047 25 144 1.0 2.0 0.00 0.00 0.00 89 1023.9
20191114054529 24 144 1.0 3.0 0.00 0.00 0.00 88 1023.6
20191114053048 24 144 2.0 4.0 0.00 0.00 0.00 88 1023.5
20191114051531 24 144 2.0 4.0 0.00 0.00 0.00 87 1023.0
20191114050033 25 144 2.0 4.0 0.00 0.00 0.00 88 1023.0
20191114044510 25 144 2.0 5.0 0.00 0.00 0.00 88 1022.4
20191114043012 24 146 3.0 4.0 0.00 0.00 0.00 86 1022.2
20191114041511 26 147 2.0 4.0 0.00 0.00 0.00 88 1022.0
20191114040013 25 146 1.0 3.0 0.00 0.00 0.00 88 1022.0
20191114034520 25 146 1.0 3.0 0.00 0.00 0.00 88 1022.1
20191114033007 25 146 2.0 4.0 0.00 0.00 0.00 88 1021.7
20191114030312 25 146 1.0 3.0 0.00 0.00 0.00 86 1021.3
20191114024627 24 146 1.0 3.0 0.00 0.00 0.00 88 1021.1
20191114023211 24 146 2.0 3.0 0.00 0.00 0.00 85 1020.9
20191114021728 24 146 3.0 5.0 0.00 0.00 0.00 84 1021.0
20191114020108 25 146 2.0 3.0 0.00 0.00 0.00 81 1020.7
20191114014647 27 146 2.0 3.0 0.00 0.00 0.00 80 1020.9
20191114013126 29 146 0.0 2.0 0.00 0.00 0.00 84 1020.8
20191114011551 28 146 1.0 3.0 0.00 0.00 0.00 83 1020.8
20191114010134 28 146 1.0 3.0 0.00 0.00 0.00 84 1020.7
20191114004609 27 146 2.0 3.0 0.00 0.00 0.00 84 1020.5
20191114003106 26 146 2.0 3.0 0.00 0.00 0.00 83 1020.5
20191114001557 27 146 1.0 3.0 0.00 0.00 0.00 82 1020.1
20191114000036 28 146 0.0 3.0 0.00 0.00 0.00 83 1019.8
20191113234600 27 146 0.0 3.0 0.00 0.01 0.00 83 1019.6
20191113233109 27 146 2.0 4.0 0.00 0.01 0.00 83 1019.4
20191113231536 26 146 2.0 3.0 0.00 0.01 0.00 81 1019.1
20191113230103 28 146 2.0 3.0 0.00 0.01 0.00 81 1018.9
20191113224524 28 146 2.0 4.0 0.00 0.01 0.00 82 1018.8
20191113223029 29 146 3.0 5.0 0.00 0.01 0.00 81 1018.7
20191113221546 29 134 1.0 4.0 0.00 0.01 0.00 82 1018.5
20191113220021 29 134 1.0 3.0 0.00 0.01 0.00 82 1018.1
20191113214518 28 134 1.0 3.0 0.00 0.01 0.00 82 1018.1
20191113213014 27 134 2.0 4.0 0.00 0.01 0.00 81 1017.7
20191113211521 27 134 3.0 5.0 0.00 0.01 0.00 80 1017.7
20191113210039 28 134 3.0 4.0 0.00 0.01 0.00 80 1017.6
20191113204512 28 134 2.0 4.0 0.00 0.01 0.00 79 1017.5
20191113203007 28 134 2.0 4.0 0.00 0.01 0.00 79 1017.4
20191113201530 28 134 3.0 4.0 0.00 0.01 0.00 79 1017.3
20191113200030 28 134 1.0 3.0 0.00 0.01 0.00 79 1017.2
20191113194510 28 134 2.0 3.0 0.00 0.01 0.00 79 1017.0